K4GZX-11 Weather Reports


time (UTC)temp
C
wind
direction
speed
KPH
gust
KPH
rain 1hr
cm
rain 24hr
cm
rain mn
cm
humidity
%
barometer
mb
20260506023352 20 172 0.0 0.0 0.00 0.00 0.00 55 1014.3
20260506022852 20 172 0.0 0.0 0.00 0.00 0.00 54 1014.2
20260506022358 20 172 0.0 0.0 0.00 0.00 0.00 54 1014.1
20260506021906 20 172 0.0 0.0 0.00 0.00 0.00 53 1014.2
20260506021401 21 172 0.0 0.0 0.00 0.00 0.00 52 1014.1
20260506020909 21 172 0.0 0.0 0.00 0.00 0.00 52 1014.1
20260506020404 21 172 0.0 0.0 0.00 0.00 0.00 51 1014.0
20260506015852 21 172 0.0 0.0 0.00 0.00 0.00 50 1013.9
20260506015354 21 172 0.0 0.0 0.00 0.00 0.00 50 1013.8
20260506014901 21 172 0.0 0.0 0.00 0.00 0.00 50 1013.8
20260506014408 22 172 0.0 0.0 0.00 0.00 0.00 50 1013.7
20260506013904 22 172 0.0 0.0 0.00 0.00 0.00 48 1013.6
20260506013356 22 172 0.0 0.0 0.00 0.00 0.00 48 1013.7
20260506012904 22 172 0.0 0.0 0.00 0.00 0.00 47 1013.6
20260506012352 22 172 0.0 0.0 0.00 0.00 0.00 48 1013.5
20260506011856 22 172 0.0 0.0 0.00 0.00 0.00 47 1013.7
20260506011404 22 172 0.0 0.0 0.00 0.00 0.00 47 1013.7
20260506010852 22 172 0.0 0.0 0.00 0.00 0.00 47 1013.6
20260506010352 22 172 0.0 0.0 0.00 0.00 0.00 47 1013.6
20260506005852 23 172 0.0 0.0 0.00 0.00 0.00 46 1013.6
20260506005352 23 172 0.0 0.0 0.00 0.00 0.00 46 1013.7
20260506004852 23 172 0.0 0.0 0.00 0.00 0.00 46 1013.7
20260506004352 23 172 0.0 0.0 0.00 0.00 0.00 45 1013.6
20260506003852 23 172 0.0 0.0 0.00 0.00 0.00 45 1013.6
20260506003352 23 172 0.0 0.0 0.00 0.00 0.00 45 1013.6
20260506002852 23 172 0.0 0.0 0.00 0.00 0.00 43 1013.6
20260506002352 24 172 0.0 0.0 0.00 0.00 0.00 43 1013.7
20260506001852 24 172 0.0 0.0 0.00 0.00 0.00 43 1013.7
20260506001352 24 172 0.0 0.0 0.00 0.00 0.00 42 1013.7
20260506000852 24 172 0.0 0.0 0.00 0.00 0.00 42 1013.6
20260506000354 24 172 0.0 0.0 0.00 0.00 0.00 41 1013.5
20260505235852 25 172 0.0 0.0 0.00 0.00 0.00 41 1013.5
20260505235352 25 172 0.0 0.0 0.00 0.00 0.00 40 1013.5
20260505234856 25 172 0.0 0.0 0.00 0.00 0.00 41 1013.5
20260505234404 25 172 0.0 0.0 0.00 0.00 0.00 40 1013.4
20260505233852 25 172 0.0 0.0 0.00 0.00 0.00 40 1013.4
20260505233356 25 172 0.0 0.0 0.00 0.00 0.00 40 1013.4
20260505232904 25 172 0.0 0.0 0.00 0.00 0.00 39 1013.4
20260505232352 25 172 0.0 0.0 0.00 0.00 0.00 39 1013.5
20260505231852 25 172 0.0 0.0 0.00 0.00 0.00 39 1013.4
20260505231352 25 172 0.0 0.0 0.00 0.00 0.00 39 1013.3
20260505230856 25 172 0.0 0.0 0.00 0.00 0.00 39 1013.3
20260505230404 26 172 0.0 0.0 0.00 0.00 0.00 39 1013.2
20260505225852 26 172 0.0 0.0 0.00 0.00 0.00 39 1013.1
20260505225351 26 172 0.0 0.0 0.00 0.00 0.00 39 1013.2
20260505224856 26 172 0.0 0.0 0.00 0.00 0.00 38 1013.3
20260505224404 26 172 0.0 0.0 0.00 0.00 0.00 38 1013.2
20260505223856 26 172 0.0 0.0 0.00 0.00 0.00 38 1013.2
20260505223404 26 172 0.0 0.0 0.00 0.00 0.00 38 1013.4
20260505222852 26 172 0.0 3.2 0.00 0.00 0.00 39 1013.5
20260505222352 26 172 0.0 4.8 0.00 0.00 0.00 38 1013.4
20260505221852 26 172 0.0 4.8 0.00 0.00 0.00 38 1013.4
20260505221352 26 172 0.0 1.6 0.00 0.00 0.00 38 1013.3
20260505220856 26 172 0.0 6.4 0.00 0.00 0.00 37 1013.4
20260505220404 26 172 0.0 6.4 0.00 0.00 0.00 36 1013.2
20260505215852 27 172 0.0 0.0 0.00 0.00 0.00 36 1013.2
20260505215352 27 172 0.0 3.2 0.00 0.00 0.00 36 1013.3
20260505214852 27 172 0.0 3.2 0.00 0.00 0.00 36 1013.6
20260505214357 27 172 0.0 0.0 0.00 0.00 0.00 36 1013.5
20260505213852 27 172 0.0 0.0 0.00 0.00 0.00 35 1013.5
20260505213351 27 172 0.0 0.0 0.00 0.00 0.00 34 1013.5
20260505212852 27 172 0.0 1.6 0.00 0.00 0.00 34 1013.5
20260505212351 27 172 0.0 1.6 0.00 0.00 0.00 33 1013.4
20260505211852 28 172 0.0 0.0 0.00 0.00 0.00 34 1013.5
20260505211352 28 172 0.0 0.0 0.00 0.00 0.00 34 1013.6
20260505210856 28 172 0.0 0.0 0.00 0.00 0.00 33 1013.6
20260505210404 28 172 0.0 0.0 0.00 0.00 0.00 33 1013.5
20260505205852 28 172 0.0 0.0 0.00 0.00 0.00 33 1013.6
20260505205351 28 172 0.0 3.2 0.00 0.00 0.00 32 1013.6
20260505204852 28 172 0.0 3.2 0.00 0.00 0.00 32 1013.7
20260505204352 28 172 0.0 0.0 0.00 0.00 0.00 32 1013.7
20260505203854 28 172 0.0 0.0 0.00 0.00 0.00 32 1013.7
20260505203401 28 172 0.0 0.0 0.00 0.00 0.00 32 1013.8
20260505202909 28 172 0.0 1.6 0.00 0.00 0.00 32 1013.7
20260505202416 29 172 0.0 1.6 0.00 0.00 0.00 30 1013.8
20260505201852 29 172 0.0 1.6 0.00 0.00 0.00 29 1013.8
20260505201352 29 172 0.0 1.6 0.00 0.00 0.00 31 1013.9
20260505200852 30 172 0.0 1.6 0.00 0.00 0.00 30 1013.9
20260505200352 30 172 0.0 1.6 0.00 0.00 0.00 30 1014.0
20260505195852 30 172 0.0 1.6 0.00 0.00 0.00 31 1014.1
20260505195352 30 172 0.0 1.6 0.00 0.00 0.00 32 1014.2
20260505194858 30 172 0.0 1.6 0.00 0.00 0.00 30 1014.3
20260505194405 31 172 0.0 0.0 0.00 0.00 0.00 28 1014.5
20260505193913 31 172 0.0 1.6 0.00 0.00 0.00 28 1014.6
20260505193420 31 172 0.0 8.0 0.00 0.00 0.00 28 1014.7
20260505192916 31 172 0.0 8.0 0.00 0.00 0.00 29 1014.8
20260505192352 31 172 0.0 1.6 0.00 0.00 0.00 28 1014.7
20260505191856 32 172 0.0 1.6 0.00 0.00 0.00 27 1014.7
20260505191404 32 172 0.0 1.6 0.00 0.00 0.00 27 1014.8
20260505190852 32 172 0.0 0.0 0.00 0.00 0.00 26 1014.9
20260505190352 31 172 0.0 0.0 0.00 0.00 0.00 27 1015.0
20260505185856 31 172 0.0 0.0 0.00 0.00 0.00 28 1015.1
20260505185404 31 172 0.0 1.6 0.00 0.00 0.00 27 1015.3
20260505184857 31 172 0.0 3.2 0.00 0.00 0.00 27 1015.4
20260505184404 31 172 0.0 3.2 0.00 0.00 0.00 27 1015.3
20260505183852 31 172 0.0 0.0 0.00 0.00 0.00 28 1015.4
20260505183352 31 172 0.0 0.0 0.00 0.00 0.00 26 1015.4
20260505182852 31 172 0.0 0.0 0.00 0.00 0.00 29 1015.4
20260505182352 31 172 0.0 0.0 0.00 0.00 0.00 28 1015.4
20260505181819 31 172 0.0 0.0 0.00 0.00 0.00 28 1015.5
20260505181323 31 172 0.0 0.0 0.00 0.00 0.00 28 1015.6
20260505180831 31 172 0.0 3.2 0.00 0.00 0.00 27 1015.6
20260505180319 31 172 0.0 6.4 0.00 0.00 0.00 30 1015.6
20260505175819 31 172 0.0 6.4 0.00 0.00 0.00 30 1015.7
20260505175319 31 172 0.0 1.6 0.00 0.00 0.00 29 1015.7
20260505174819 30 172 0.0 0.0 0.00 0.00 0.00 30 1015.9
20260505174319 30 172 0.0 0.0 0.00 0.00 0.00 29 1015.9
20260505173819 30 172 0.0 0.0 0.00 0.00 0.00 29 1016.0
20260505173319 30 172 0.0 0.0 0.00 0.00 0.00 31 1016.1
20260505172819 30 172 0.0 0.0 0.00 0.00 0.00 30 1016.1
20260505172028 30 172 0.0 0.0 0.00 0.00 0.00 32 1016.1
20260505171516 30 172 0.0 0.0 0.00 0.00 0.00 31 1016.2
20260505171021 29 172 0.0 0.0 0.00 0.00 0.00 31 1016.3
20260505170528 29 172 0.0 0.0 0.00 0.00 0.00 29 1016.3
20260505170016 29 172 0.0 0.0 0.00 0.00 0.00 30 1016.4
20260505165516 29 172 0.0 0.0 0.00 0.00 0.00 29 1016.4
20260505165016 29 172 0.0 0.0 0.00 0.00 0.00 31 1016.4
20260505164516 29 172 0.0 0.0 0.00 0.00 0.00 31 1016.4
20260505164016 28 172 0.0 0.0 0.00 0.00 0.00 32 1016.5
20260505163516 28 172 0.0 0.0 0.00 0.00 0.00 34 1016.4
20260505163016 28 172 0.0 0.0 0.00 0.00 0.00 32 1016.4
20260505162516 28 172 0.0 0.0 0.00 0.00 0.00 34 1016.5
20260505161859 27 172 0.0 0.0 0.00 0.00 0.00 38 1016.4
20260505161407 27 172 0.0 0.0 0.00 0.00 0.00 39 1016.6
20260505160914 26 172 0.0 0.0 0.00 0.00 0.00 39 1016.6
20260505160410 26 172 0.0 0.0 0.00 0.00 0.00 42 1016.6
20260505152858 22 172 0.0 0.0 0.00 0.00 0.00 54 1017.0
20260505152405 22 172 0.0 0.0 0.00 0.00 0.00 59 1017.0
20260505151853 21 172 0.0 0.0 0.00 0.00 0.00 60 1016.9
20260505151353 21 172 0.0 0.0 0.00 0.00 0.00 63 1016.9
20260505150858 21 172 0.0 0.0 0.00 0.00 0.00 65 1016.9
20260505150405 20 172 0.0 0.0 0.00 0.00 0.00 65 1016.9
20260505140422 -17 0.0 0.0 0.00 0.00 0.00 1017.0
20260505124853 11 172 0.0 0.0 0.00 0.00 0.00 85 1016.5
20260505124353 10 172 0.0 0.0 0.00 0.00 0.00 85 1016.5
20260505123853 10 172 0.0 0.0 0.00 0.00 0.00 85 1016.4
20260505123353 -17 0.0 0.0 0.00 0.00 0.00 1016.6
20260505122853 -17 0.0 0.0 0.00 0.00 0.00 1016.5
20260505122353 -17 0.0 0.0 0.00 0.00 0.00 1016.6
20260505121853 -17 0.0 0.0 0.00 0.00 0.00 1016.4
20260505121358 -17 0.0 0.0 0.00 0.00 0.00 1016.5
20260505120905 -17 0.0 0.0 0.00 0.00 0.00 1016.4
20260505120353 -17 0.0 0.0 0.00 0.00 0.00 1016.3
20260505115858 -17 0.0 0.0 0.00 0.00 0.00 1016.2
20260505115405 -17 0.0 0.0 0.00 0.00 0.00 1016.2
20260505114853 -17 0.0 0.0 0.00 0.00 0.00 1016.2
20260505114355 -17 0.0 0.0 0.00 0.00 0.00 1016.2
20260505113902 -17 0.0 0.0 0.00 0.00 0.00 1016.1
20260505113410 -17 0.0 0.0 0.00 0.00 0.00 1016.1
20260505112917 -17 0.0 0.0 0.00 0.00 0.00 1016.1
20260505112353 -17 0.0 0.0 0.00 0.00 0.00 1015.9
20260505111858 -17 0.0 0.0 0.00 0.00 0.00 1015.8
20260505111405 -17 0.0 0.0 0.00 0.00 0.00 1015.8
20260505110913 -17 0.0 0.0 0.00 0.00 0.00 1015.6
20260505110420 -17 0.0 0.0 0.00 0.00 0.00 1015.6
20260505102029 -17 0.0 0.0 0.00 0.00 0.00 1015.6
20260505101536 -17 0.0 0.0 0.00 0.00 0.00 1015.5
20260505101044 -17 0.0 0.0 0.00 0.00 0.00 1015.6
20260505100551 -17 0.0 0.0 0.00 0.00 0.00 1015.5
20260505100059 -17 0.0 0.0 0.00 0.00 0.00 1015.4
20260505095554 -17 0.0 0.0 0.00 0.00 0.00 1015.5
20260505095102 -17 0.0 0.0 0.00 0.00 0.00 1015.5
20260505094557 -17 0.0 0.0 0.00 0.00 0.00 1015.6
20260505094105 -17 0.0 0.0 0.00 0.00 0.00 1015.5
20260505093612 -17 0.0 0.0 0.00 0.00 0.00 1015.6
20260505093119 -17 0.0 0.0 0.00 0.00 0.00 1015.6
20260505092627 -17 0.0 0.0 0.00 0.00 0.00 1015.6
20260505092134 -17 0.0 0.0 0.00 0.00 0.00 1015.6
20260505091642 -17 0.0 0.0 0.00 0.00 0.00 1015.6
20260505091149 -17 0.0 0.0 0.00 0.00 0.00 1015.7
20260505090657 -17 0.0 0.0 0.00 0.00 0.00 1015.7
20260505090204 -17 0.0 0.0 0.00 0.00 0.00 1015.7
20260505085711 -17 0.0 0.0 0.00 0.00 0.00 1015.7
20260505085219 -17 0.0 0.0 0.00 0.00 0.00 1015.7
20260505084353 -17 0.0 0.0 0.00 0.00 0.00 1015.7
20260505083857 -17 0.0 0.0 0.00 0.00 0.00 1015.6
20260505083405 -17 0.0 0.0 0.00 0.00 0.00 1015.6
20260505082858 -17 0.0 0.0 0.00 0.00 0.00 1015.5
20260505082405 -17 0.0 0.0 0.00 0.00 0.00 1015.5
20260505081853 -17 0.0 0.0 0.00 0.00 0.00 1015.4
20260505081353 -17 0.0 0.0 0.00 0.00 0.00 1015.4
20260505080853 -17 0.0 0.0 0.00 0.00 0.00 1015.4
20260505080353 -17 0.0 0.0 0.00 0.00 0.00 1015.4
20260505075853 -17 0.0 0.0 0.00 0.00 0.00 1015.4
20260505075353 -17 0.0 0.0 0.00 0.00 0.00 1015.5
20260505074853 -17 0.0 0.0 0.00 0.00 0.00 1015.5
20260505074353 -17 0.0 0.0 0.00 0.00 0.00 1015.4
20260505073853 -17 0.0 0.0 0.00 0.00 0.00 1015.4
20260505073358 -17 0.0 0.0 0.00 0.00 0.00 1015.3
20260505072905 -17 0.0 0.0 0.00 0.00 0.00 1015.3
20260505072353 -17 0.0 0.0 0.00 0.00 0.00 1015.4
20260505071853 -17 0.0 0.0 0.00 0.00 0.00 1015.6
20260505071353 -17 0.0 0.0 0.00 0.00 0.00 1015.4
20260505070853 -17 0.0 0.0 0.00 0.00 0.00 1015.5
20260505070357 -17 0.0 0.0 0.00 0.00 0.00 1015.2
20260505065905 -17 0.0 0.0 0.00 0.00 0.00 1015.1
20260505065354 -17 0.0 0.0 0.00 0.00 0.00 1015.1
20260505064902 -17 0.0 0.0 0.00 0.00 0.00 1015.1
20260505064409 -17 0.0 0.0 0.00 0.00 0.00 1015.2
20260505063917 -17 0.0 0.0 0.00 0.00 0.00 1015.2
20260505063353 -17 0.0 0.0 0.00 0.00 0.00 1015.2
20260505062853 -17 0.0 0.0 0.00 0.00 0.00 1015.2
20260505062358 -17 0.0 0.0 0.00 0.00 0.00 1015.3
20260505061905 -17 0.0 0.0 0.00 0.00 0.00 1015.3
20260505061352 -17 0.0 0.0 0.00 0.00 0.00 1015.3
20260505060853 -17 0.0 0.0 0.00 0.00 0.00 1015.3
20260505060353 -17 0.0 0.0 0.00 0.00 0.00 1015.3
20260505055853 -17 0.0 0.0 0.00 0.00 0.00 1015.3
20260505055353 -17 0.0 0.0 0.00 0.00 0.00 1015.3
20260505054853 -17 0.0 0.0 0.00 0.00 0.00 1015.4
20260505054354 -17 0.0 0.0 0.00 0.00 0.00 1015.3
20260505053902 -17 0.0 0.0 0.00 0.00 0.00 1015.4
20260505053409 -17 0.0 0.0 0.00 0.00 0.00 1015.4
20260505052905 -17 0.0 0.0 0.00 0.00 0.00 1015.4
20260505052353 -17 0.0 0.0 0.00 0.00 0.00 1015.3
20260505051853 -17 0.0 0.0 0.00 0.00 0.00 1015.3
20260505051353 -17 0.0 0.0 0.00 0.00 0.00 1015.4
20260505050853 -17 0.0 0.0 0.00 0.00 0.00 1015.4
20260505050353 -17 0.0 0.0 0.00 0.00 0.00 1015.4
20260505041353 -17 0.0 0.0 0.00 0.00 0.00 1015.4
20260505040853 -17 0.0 0.0 0.00 0.00 0.00 1015.4
20260505040353 -17 0.0 0.0 0.00 0.00 0.00 1015.4
20260505035857 -17 0.0 0.0 0.00 0.00 0.00 1015.5
20260505035405 -17 0.0 0.0 0.00 0.00 0.00 1015.6
20260505034855 -17 0.0 0.0 0.00 0.00 0.00 1015.6
20260505034402 -17 0.0 0.0 0.00 0.00 0.00 1015.6
20260505033910 -17 0.0 0.0 0.00 0.00 0.00 1015.6
20260505033417 -17 0.0 0.0 0.00 0.00 0.00 1015.6
20260505032925 -17 0.0 0.0 0.00 0.00 0.00 1015.6
20260505032408 -17 0.0 0.0 0.00 0.00 0.00 1015.7
20260505031915 -17 0.0 0.0 0.00 0.00 0.00 1015.6
20260505031411 -17 0.0 0.0 0.00 0.00 0.00 1015.6
20260505030918 -17 0.0 0.0 0.00 0.00 0.00 1015.6
20260505030426 -17 0.0 0.0 0.00 0.00 0.00 1015.6
20260505025921 -17 0.0 0.0 0.00 0.00 0.00 1015.6
20260505025404 -17 0.0 0.0 0.00 0.00 0.00 1015.5
20260505024854 -17 0.0 0.0 0.00 0.00 0.00 1015.6
20260505024402 -17 0.0 0.0 0.00 0.00 0.00 1015.6
20260505023909 -17 0.0 0.0 0.00 0.00 0.00 1015.6